Home > Weather > Martigny > Past weeks

Flag for Switzerland Past Weather in Martigny, Valais, Switzerland — Yesterday and Last 2 Weeks

Now
69 °F

Mild.


Feels Like: 69 °F
Forecast: 67 / 90 °F
Wind: 1 mph from East

Location: Sion

Current Time: Aug 27, 2016 at 5:20:23 AM

Latest Report: Aug 27, 2016 at 4:00 AM


Visibility: N/A

Pressure: 30.09 "Hg

Humidity: 76%

Dew Point: 61 °F

Location of MartignyLocation

Past Weather in Martigny — Graph

°F

Martigny Temperature Yesterday

Maximum temperature yesterday: 91 °F (at 4:00 PM)
Minimum temperature yesterday: 65 °F (at 6:00 AM)
Average temperature yesterday: 78 °F

High & Low Weather Summary for the Past Weeks

 TemperatureHumidityPressure
High91 °F (Aug 26, 4:00 PM)95% (Aug 19, 2:00 AM)30.39 "Hg (Aug 19, 2:00 AM)
Low50 °F (Aug 22, 6:00 AM)23% (Aug 16, 6:00 PM)29.75 "Hg (Aug 17, 5:00 PM)
Average71 °F61%30.06 "Hg
* Reported Aug 12 3:00 AM — Aug 27 3:00 AM, Martigny, Weather by CustomWeather, © 2016

Note: Actual official high and low records may vary slightly from our data, if they occured in-between our weather recording intervals... More about our weather records

Advertising

Martigny Weather History for the Previous 24 Hours

Scroll right to see more
 ConditionsComfort  
Time TempWeatherWind HumidityBarometerVisibility
3:00 AM
Sat, Aug 27
70 °FMild.1 mph77%30.08 "HgN/A
2:00 AM73 °FPassing clouds.1 mph68%30.06 "Hg9 mi
1:00 AM76 °FMild.3 mph60%30.04 "HgN/A
12:00 AM76 °FMild.2 mph61%30.03 "HgN/A
11:00 PM
Fri, Aug 26
78 °FPassing clouds.1 mph57%30.02 "Hg9 mi
10:00 PM78 °FWarm.2 mph59%29.99 "HgN/A
9:00 PM84 °FWarm.2 mph45%29.95 "HgN/A
8:00 PM84 °FWarm.2 mph47%29.93 "HgN/A
7:00 PM88 °FHot.15 mph42%29.89 "HgN/A
6:00 PM90 °FHot.17 mph41%29.88 "HgN/A
5:00 PM91 °FScattered clouds.16 mph40%29.88 "Hg22 mi
4:00 PM91 °FHot.14 mph39%29.90 "HgN/A
3:00 PM91 °FHot.14 mph37%29.92 "HgN/A
2:00 PM89 °FSunny.13 mph37%29.94 "Hg19 mi
1:00 PM87 °FPleasantly warm.6 mph35%29.97 "HgN/A
12:00 PM83 °FWarm.3 mph45%30.01 "HgN/A
11:00 AM79 °FSunny.2 mph46%30.05 "Hg19 mi
10:00 AM77 °FMild.2 mph53%30.06 "HgN/A
9:00 AM71 °FMild.3 mph63%30.09 "HgN/A
8:00 AM67 °FSunny.No wind72%30.11 "Hg19 mi
7:00 AM65 °FMild.1 mph75%30.11 "HgN/A
6:00 AM65 °FMild.2 mph76%30.10 "HgN/A
5:00 AM65 °FClear.2 mph75%30.09 "Hg12 mi
Weather by CustomWeather, © 2016

See weather overviewHow to use our weather pages